Regional Weather Roundup
Issued by NWS Austin/San Antonio, TX

Home | Current Version | Previous Version | Text Only | Print | Product List | Glossary On
Versions: 1 2 3 4 5 6 7 8 9 10 11 12 13 14 15 16 17 18 19 20 21 22 23 24 25 26 27 28 29 30 31 32 33 34 35 36 37 38 39 40 41 42 43 44 45 46 47 48 49 50
000
ASUS44 KEWX 232202
RWREWX
SOUTH TEXAS REGIONAL WEATHER ROUNDUP
NATIONAL WEATHER SERVICE AUSTIN/SAN ANTONIO TX
400 PM CST SUN FEB 23 2020

NOTE: "FAIR" INDICATED FEW OR NO CLOUDS BELOW 12,000 FEET WITH NO
SIGNIFICANT WEATHER AND/OR OBSTRUCTIONS TO VISIBILITY.

* - THESE STATIONS ARE NOT NWS OR FAA STATIONS...AND ARE NOT SUBJECT
    TO NWS AND FAA QUALITY CONTROL.

TXZ171-172-183>190-232300-
TEXAS HILL COUNTRY AND EDWARDS PLATEAU

CITY           SKY/WX    TMP DP  RH WIND       PRES   REMARKS
JUNCTION       CLOUDY    61  54  77 S8        29.93S
*LLANO         CLOUDY    64  55  72 CALM      29.95F
BURNET         CLOUDY    61  55  81 E3        29.94F
*HORSESHOE BAY CLOUDY    64  55  72 CALM      29.93F
*LAGO VISTA    CLOUDY    64  57  80 S3        29.93F
*KERRVILLE     CLOUDY    64  56  77 S10       29.93S
*FREDERICKSBRG CLOUDY    62  54  74 S6        29.92F
*ROCKSPRINGS     N/A     59  54  82 S8G15     29.98S
*BOERNE        CLOUDY    64  55  72 CALM      29.92S
*CASTROVILLE   CLOUDY    74  56  52 S16G22    29.92F
HONDO          PTSUNNY   72  56  57 S14       29.90F
*UVALDE        MOSUNNY   70  57  62 SE10      29.91S
DEL RIO        SUNNY     76  50  40 SE8       29.86F
*LAUGHLIN AFB  NOT AVBL
*SPOFFORD      NOT AVBL
*EAGLE PASS    SUNNY     77  52  41 SE8       29.86F
CARRIZO SPRGS  SUNNY     77  55  47 S9G20     29.85F
*FAITH RANCH   SUNNY     79  55  44 SE12G20   29.85F
$$

TXZ173-191>194-202-209-217>225-228-232300-
CENTRAL AND SOUTH CENTRAL TEXAS

CITY           SKY/WX    TMP DP  RH WIND       PRES   REMARKS
GEORGETOWN     CLOUDY    61  57  87 N6        29.95F
*TAYLOR        CLOUDY    65  59  78 SE5       29.93F
AUSTIN/BERGSTM CLOUDY    70  58  65 S7        29.92F
AUSTIN/MABRY   CLOUDY    69  56  62 VRB3      29.93F
*PFLUGERVILLE  CLOUDY    66  57  72 S7        29.93F
SAN MARCOS     CLOUDY    72  60  66 S12       29.91F
NEW BRAUNFELS  CLOUDY    73  58  59 S17G24    29.89F
*RANDOLPH AFB  CLOUDY    71  59  64 SW14      29.89F
*SEGUIN        CLOUDY    71  58  62 S13       29.94F
SAN ANTONIO    CLOUDY    70  57  63 SE16      29.90F
STINSON FIELD  CLOUDY    71  57  61 S13       29.88F
*KELLY FIELD   PTSUNNY   72  56  58 S12       29.88F
*PLEASANTON    CLOUDY    74  56  54 SE12G18   29.89F
*KENEDY        PTSUNNY   75  59  58 S13G21    29.91F
*LA GRANGE     CLOUDY    69  62  77 SE7       29.92F
*GIDDINGS      CLOUDY    68  60  76 SE8       29.95F
*GONZALES      CLOUDY    72  60  65 S10       29.92F
$$

TXZ163>164-176>182-195>201-210>213-226-227-235-232300-
SOUTHEAST TEXAS

CITY           SKY/WX    TMP DP  RH WIND       PRES   REMARKS
COLLEGE STN    CLOUDY    64  60  87 SE8       29.98S FOG
*BRYAN         CLOUDY    63  63 100 SE7       30.00S FOG
*CALDWELL      CLOUDY    64  61  90 SE10      29.97S
*CROCKETT      NOT AVBL
*BRENHAM       CLOUDY    65  60  82 SE6       29.98R
HUNTSVILLE     CLOUDY    60  58  92 SE6       30.00S FOG
CONROE         CLOUDY    64  57  78 SE8       30.01F
HOUSTON BUSH   CLOUDY    65  57  75 SE14      30.00F
HOUSTON HOBBY  CLOUDY    69  55  60 SE15      29.99F
*HOUSTON SW AP CLOUDY    67  57  70 SE12      30.00S
PEARLAND       CLOUDY    69  56  62 SE13      30.02S
HOUSTON HOOKS  CLOUDY    67  54  63 E12       29.99F
ELLINGTON FLD  CLOUDY    68  59  73 SE12      30.00F
SUGAR LAND     CLOUDY    70  58  65 S13       29.97F
*HOUSTON EXEC  CLOUDY    70  59  68 SE14      29.98S
*CLEVELAND MUN CLOUDY    64  56  74 CALM      30.02F
*WHARTON       CLOUDY    70  56  61 SE18      29.97F
*COLUMBUS      CLOUDY    66  55  66 S12G17    29.96F
*EAGLE LAKE    CLOUDY    72  61  68 S16       29.96
$$

TXZ214>216-236>238-232300-
THE UPPER TEXAS COAST

CITY           SKY/WX    TMP DP  RH WIND       PRES   REMARKS
*ORANGE        CLOUDY    67  57  69 SE10      30.07S
PORT ARTHUR    CLOUDY    66  57  72 SE13      30.05R
GALVESTON      CLOUDY    66  60  81 E16       30.01F
ANGLETON       CLOUDY    69  57  65 S18       30.00S
*BAY CITY      CLOUDY    72  62  70 SE15G22   29.98S
PALACIOS       PTSUNNY   71  60  68 SE17      29.97S
$$

TXZ229>234-239>247-232300-
TEXAS COASTAL BEND AND RIO GRANDE PLAINS

CITY           SKY/WX    TMP DP  RH WIND       PRES   REMARKS
VICTORIA       CLOUDY    74  60  61 S17       29.95R
*BEEVILLE      CLOUDY    75  64  69 SE17      29.91S
ROCKPORT       CLOUDY    72  61  68 SE13      29.94F
*PORT ARANSAS  CLOUDY    67  63  85 E9        29.96S
*PORT LAVACA   CLOUDY    74  63  66 S17G23    29.96S
*INGLESIDE     PTSUNNY   72  65  80 S15       29.93F
CORPUS CHRISTI PTSUNNY   75  62  64 SE23G31   29.92F
CORPUS NAS     CLOUDY    71  63  75 S14       29.93F
*ROBSTOWN      CLOUDY    75  61  62 S21G30    29.92F
ALICE          CLOUDY    76  63  64 SE18G24   29.90F
KINGSVILLE NAS PTSUNNY   75  63  66 SE22G28   29.90F
COTULLA        SUNNY     79  59  50 S13G22    29.86F
LAREDO         SUNNY     80  57  45 SE13      29.85F
$$

TXZ248>255-232300-
DEEP SOUTH TEXAS

CITY           SKY/WX    TMP DP  RH WIND       PRES   REMARKS
BROWNSVILLE    CLOUDY    76  64  66 SE21      29.92F
PORT ISABEL    PTSUNNY   75  65  70 SE20G26   29.91F
HARLINGEN      CLOUDY    78  63  59 S21       29.90F
*HEBBRONVILLE  SUNNY     79  57  47 S10G21    29.89F
MCALLEN        MOSUNNY   82  61  48 SE21G28   29.89F
*WESLACO       MOSUNNY   80  58  47 S24G30    29.89
FALFURRIAS     CLOUDY    82  60  47 S16G24    29.89S
EDINBURG       FAIR      79  56  45 S17G26    29.89F
*ZAPATA        FAIR      84  58  41 S12G20    29.87F
$$

TXZ213>215-236>238-242>244-246-247-251-254-255-232300-
CMAN STATIONS

STATION/POSITION TIME  TEMP    WIND        PRES    WAVE
                       AIR SEA DIR/SP/G            HT/PER
                 (UTC) (F)     (DEG/KT/KT) (MB)    (FT/S)
SABINE PASS      2130   62 60  130/ 13/ 17 1019.1
NORTH JETTY/GLS  2130   62 59  130/ 17/ 19 1015.3
EAGLE POINT      2130   61 57  130/ 12/ 13 1015.5
MORGANS POINT    2130   62 59  120/ 12/ 16 1016.2
PORT O`CONNOR    2124   65 64  140/ 15/ 19 1014.2
PORT ARANSAS     2100   64 61  120/ 10/ 10 1014.2
MALAQUITE BEACH  2124   67 63  120/ 11/ 12 1013.4
BAFFIN BAY       2124   68 67  110/ 15/ 19 1013.8
PORT ISABEL      2124   69 63  140/ 12/ 19 1013.9
$$




USA.gov is the U.S. government's official web portal to all federal, state and local government web resources and services.